This demonstration page uses our WeatherBlox Daily Observations layout. Learn more.

Left ArrowRight Arrow

38.88101, -77.10428

Hourly Observations for January 3, 2015

Temp ( °F °C ) Dew Point ( °F °C ) Humidity (%) Winds ( mph kmh ) Pressure ( in mb ) Visibility ( mi km ) Precip ( " mm )
12:52 am 00:52 Partly Cloudy 35 1.7 26 -3.3 70 70 N 3 6 30.44 1031 10 16 N/A
1:52 am 01:52 Partly Cloudy 36 2.2 28 -2.2 73 73 N N/A 30.45 1031 10 16 N/A
2:52 am 02:52 Cloudy 36 2.2 27 -2.8 70 70 N N/A 30.49 1033 10 16 N/A
3:07 am 03:07 Cloudy 36 2 28 -2 75 75 NE 3 6 30.48 1032 10 16 N/A
3:52 am 03:52 Cloudy 37 2.8 27 -2.8 67 67 NNE 5 7 30.48 1032 10 16 N/A
4:52 am 04:52 Cloudy 38 3.3 25 -3.9 60 60 ENE 6 9 30.48 1032 10 16 N/A
5:52 am 05:52 Cloudy 38 3.3 27 -2.8 65 65 NE 6 9 30.48 1032 10 16 N/A
6:52 am 06:52 Cloudy with Light Rain 39 3.9 28 -2.2 65 65 NE 6 9 30.50 1033 10 16 N/A
7:52 am 07:52 Cloudy with Light Rain 39 3.9 29 -1.7 67 67 N N/A 30.52 1034 8 13 0.04 1.02
8:52 am 08:52 Cloudy with Light Rain 39 3.9 32 undefined 76 76 N N/A 30.52 1034 8 13 0.05 1.27
9:52 am 09:52 Cloudy 40 4.4 33 0.6 77 77 NNE 6 9 30.51 1033 10 16 0.01 0.25
10:52 am 10:52 Cloudy 41 5 34 1.1 76 76 N N/A 30.50 1033 10 16 N/A
11:52 am 11:52 Cloudy with Rain 40 4.4 34 1.1 79 79 E 5 7 30.45 1031 3 4 0.02 0.51
12:35 pm 12:35 Cloudy with Light Rain 41 5 34 1 76 76 N N/A 30.42 1030 6 10 0.06 1.52
12:52 pm 12:52 Cloudy with Light Rain 41 5 34 1.1 76 76 ENE 3 6 30.42 1030 3 5 0.10 2.54
1:03 pm 13:03 Cloudy 41 5 36 2 81 81 N N/A 30.42 1030 9 14 N/A
1:31 pm 13:31 Cloudy 41 5 36 2 81 81 N N/A 30.39 1029 7 11 N/A
1:52 pm 13:52 Cloudy with Drizzle 41 5 35 1.7 79 79 NNE 5 7 30.37 1029 6 10 N/A
2:40 pm 14:40 Cloudy with Drizzle 41 5 36 2 81 81 N N/A 30.36 1028 3 4 N/A
2:52 pm 14:52 Cloudy with Light Rain 41 5 36 2.2 82 82 N 3 6 30.36 1028 2 3 N/A
2:58 pm 14:58 Cloudy with Drizzle 41 5 36 2 81 81 NNE 3 6 30.36 1028 2 3 N/A
3:04 pm 15:04 Cloudy with Drizzle 41 5 36 2 81 81 N 3 6 30.36 1028 2 2 N/A
3:23 pm 15:23 Cloudy with Drizzle 41 5 37 3 87 87 NE 7 11 30.33 1027 1 2 N/A
3:52 pm 15:52 Cloudy with Drizzle 41 5 37 2.8 86 86 N N/A 30.34 1028 1 2 0.01 0.25
4:04 pm 16:04 Cloudy with Light Rain 41 5 37 3 87 87 N 3 6 30.33 1027 1 2 N/A
4:13 pm 16:13 Cloudy with Light Rain 41 5 37 3 87 87 N 3 6 30.33 1027 1 1 N/A
4:41 pm 16:41 Cloudy with Light Rain 41 5 37 3 87 87 NE 3 6 30.33 1027 1 1 0.01 0.25
4:52 pm 16:52 Cloudy with Drizzle 41 5 37 2.8 86 86 NE 5 7 30.32 1027 1 1 0.01 0.25
4:57 pm 16:57 Cloudy with Drizzle 41 5 37 3 87 87 ENE 6 9 30.33 1027 1 2 N/A
5:22 pm 17:22 Cloudy with Drizzle 41 5 37 3 87 87 NE 6 9 30.30 1026 2 2 N/A
5:38 pm 17:38 Cloudy with Drizzle 41 5 37 3 87 87 NNE 5 7 30.30 1026 2 3 N/A
5:52 pm 17:52 Cloudy with Drizzle 41 5 37 2.8 86 86 NE 5 7 30.28 1025 3 4 N/A
6:10 pm 18:10 Cloudy with Drizzle 39 4 36 2 87 87 ENE 6 9 30.27 1025 3 5 N/A
6:17 pm 18:17 Cloudy with Drizzle 39 4 36 2 87 87 NE 8 13 30.27 1025 3 4 N/A
6:28 pm 18:28 Cloudy with Drizzle 39 4 36 2 87 87 NNE 6 9 30.27 1025 3 4 N/A
6:52 pm 18:52 Cloudy with Mist and Fog 41 5 37 2.8 86 86 NE 6 9 30.24 1024 3 4 N/A
7:00 pm 19:00 Cloudy with Mist and Fog 39 4 37 3 93 93 N N/A 30.24 1024 3 4 N/A
7:14 pm 19:14 Cloudy with Mist and Fog 41 5 37 3 87 87 N 3 6 30.24 1024 3 5 N/A
7:23 pm 19:23 Cloudy with Mist and Fog 41 5 36 2 81 81 ENE 3 6 30.24 1024 2 3 N/A
7:32 pm 19:32 Cloudy with Drizzle 41 5 37 3 87 87 N 6 9 30.24 1024 2 3 N/A
7:41 pm 19:41 Cloudy with Drizzle 41 5 37 3 87 87 N 6 9 30.24 1024 3 4 N/A
7:52 pm 19:52 Cloudy with Light Rain 41 5 37 2.8 86 86 N 3 6 30.22 1024 3 4 N/A
8:17 pm 20:17 Cloudy with Rain 41 5 37 3 87 87 N N/A 30.21 1023 2 2 0.03 0.76
8:40 pm 20:40 Cloudy with Rain 41 5 37 3 87 87 N 6 9 30.21 1023 2 3 N/A
8:52 pm 20:52 Cloudy with Light Rain 41 5 37 2.8 86 86 N 7 11 30.19 1022 3 4 0.11 2.79
8:59 pm 20:59 Cloudy with Light Rain 41 5 37 3 87 87 N 6 9 30.18 1022 3 5 0.01 0.25
9:16 pm 21:16 Cloudy with Rain 41 5 37 3 87 87 N 3 6 30.18 1022 3 4 N/A
9:43 pm 21:43 Cloudy with Light Rain 43 6 37 3 81 81 N N/A 30.18 1022 3 4 0.12 3.05
9:52 pm 21:52 Cloudy with Light Rain 42 5.6 37 2.8 82 82 N N/A 30.16 1022 3 4 0.13 3.30
10:01 pm 22:01 Cloudy with Light Rain 41 5 37 3 87 87 ESE 6 9 30.15 1021 3 4 0.01 0.25
10:10 pm 22:10 Cloudy with Light Rain 41 5 37 3 87 87 WSW 6 9 30.18 1022 3 5 N/A
10:13 pm 22:13 Cloudy with Light Rain 41 5 37 3 87 87 WSW 3 6 30.15 1021 3 5 0.01 0.25
10:24 pm 22:24 Cloudy with Light Rain 41 5 37 3 87 87 S 3 6 30.15 1021 4 6 N/A
10:52 pm 22:52 Cloudy with Light Rain 42 5.6 38 3.3 85 85 W 5 7 30.15 1021 4 6 0.01 0.25
11:03 pm 23:03 Cloudy with Drizzle 43 6 37 3 81 81 WNW 3 6 30.15 1021 6 10 N/A
11:18 pm 23:18 Cloudy with Drizzle 43 6 37 3 81 81 SW 3 6 30.15 1021 6 10 N/A
11:52 pm 23:52 Cloudy with Drizzle 42 5.6 38 3.3 85 85 S 3 6 30.12 1020 6 10 0.01 0.25

Powered by AerisWeather